Voltar ao catálogo

SCOUT X-4 R/B

AtivoLEO
NORAD 871·ROCKET BODY·🇺🇸 United States

Lançado Aug 25, 1964 de Vandenberg Space Force Base

Loading…

Próximas Passagens (próximas 24 horas)

TLE

AtualizadoSource: Space-Track

Época: Sep 14, 2026, 14:40 UTC

1 00871U 64051B   26257.61163439  .00000195  00000-0  12230-3 0  9993
2 00871  79.8960 329.0025 0085130 266.9488  92.1930 14.00720179157387

Acompanhe SCOUT X-4 R/B em tempo real com AllMySat

Download on the App Store